Location: ????????
(42.0488°N, 44.0407°E)
Time: 20:37:24
(UTC+00:00)

SL-16 R/B - Pass Details

Date: 07 June 2020
Orbit: 986 x 1006 km, 99.5° (Epoch: 06 July)

Event Time Altitude Azimuth Distance (km) Brightness Sun altitude
Exits shadow 00:10:23 15° 236° (SW) 2,392 3.9 -12.0°
Maximum altitude 00:13:10 20° 268° (W) 2,119 3.9 -11.7°
Drops below altitude 10° 00:17:32 10° 314° (NW) 2,756 4.9 -11.1°
Sets 00:20:47 0° 331° (NNW) 3,712 5.7 -10.7°
